TimeEST,TemperatureF,Dew PointF,Humidity,Sea Level PressureIn,VisibilityMPH,Wind Direction,Wind SpeedMPH,Gust SpeedMPH,PrecipitationIn,Events,Conditions,WindDirDegrees,DateUTC
12:14 AM,38.3,35.2,89,30.53,3.0,Calm,Calm,-,N/A,,Clear,0,2012-11-17 05:14:00
12:34 AM,38.1,35.4,90,30.53,3.0,Calm,Calm,-,N/A,,Clear,0,2012-11-17 05:34:00
12:55 AM,37.4,35.1,91,30.54,3.0,Calm,Calm,-,N/A,,Clear,0,2012-11-17 05:55:00
1:14 AM,38.3,36.0,91,30.54,2.5,Calm,Calm,-,N/A,,Clear,0,2012-11-17 06:14:00
1:35 AM,36.5,34.2,91,30.54,2.5,Calm,Calm,-,N/A,,Clear,0,2012-11-17 06:35:00
1:55 AM,36.9,34.5,91,30.55,3.0,Calm,Calm,-,N/A,,Clear,0,2012-11-17 06:55:00
2:14 AM,36.0,33.3,90,30.55,3.0,Calm,Calm,-,N/A,,Clear,0,2012-11-17 07:14:00
2:35 AM,35.6,32.9,90,30.55,3.0,Calm,Calm,-,N/A,,Clear,0,2012-11-17 07:35:00
2:54 AM,36.1,33.4,90,30.55,3.0,Calm,Calm,-,N/A,,Clear,0,2012-11-17 07:54:00
3:15 AM,36.7,33.6,89,30.55,3.0,Calm,Calm,-,N/A,,Mostly Cloudy,0,2012-11-17 08:15:00
3:35 AM,37.2,34.0,88,30.55,0.8,Calm,Calm,-,N/A,,Overcast,0,2012-11-17 08:35:00
3:54 AM,35.8,33.4,91,30.55,0.2,Calm,Calm,-,N/A,Fog,Fog,0,2012-11-17 08:54:00
4:15 AM,34.2,32.2,92,30.56,0.2,Calm,Calm,-,N/A,Snow,Light Snow,0,2012-11-17 09:15:00
4:35 AM,34.5,32.7,93,30.56,0.2,Calm,Calm,-,N/A,Fog,Fog,0,2012-11-17 09:35:00
5:15 AM,33.1,31.8,95,30.58,0.5,Calm,Calm,-,N/A,Fog,Fog,0,2012-11-17 10:15:00
5:35 AM,33.3,32.0,95,30.58,2.0,Calm,Calm,-,N/A,,Scattered Clouds,0,2012-11-17 10:35:00
5:54 AM,33.1,32.0,96,30.59,1.2,Calm,Calm,-,N/A,,Scattered Clouds,0,2012-11-17 10:54:00
6:15 AM,32.4,31.5,96,30.60,0.8,North,3.5,-,N/A,,Mist,360,2012-11-17 11:15:00
6:34 AM,32.9,32.0,96,30.60,3.0,Calm,Calm,-,N/A,,Clear,0,2012-11-17 11:34:00
6:55 AM,33.3,32.0,95,30.60,3.0,Calm,Calm,-,N/A,,Clear,0,2012-11-17 11:55:00
7:14 AM,32.9,31.8,96,30.60,2.5,Calm,Calm,-,N/A,,Clear,0,2012-11-17 12:14:00
7:35 AM,32.4,31.6,97,30.60,2.0,Calm,Calm,-,N/A,,Clear,0,2012-11-17 12:35:00
7:55 AM,32.7,31.6,96,30.61,2.5,Calm,Calm,-,N/A,,Clear,0,2012-11-17 12:55:00
8:14 AM,33.4,32.0,94,30.62,4.0,Calm,Calm,-,N/A,,Clear,0,2012-11-17 13:14:00
8:35 AM,34.7,32.7,92,30.61,2.5,Calm,Calm,-,N/A,,Clear,0,2012-11-17 13:35:00
8:55 AM,35.8,33.6,92,30.62,4.0,Calm,Calm,-,N/A,,Clear,0,2012-11-17 13:55:00
9:14 AM,37.0,34.2,89,30.62,5.0,Calm,Calm,-,N/A,,Clear,0,2012-11-17 14:14:00
9:35 AM,38.1,34.9,88,30.63,5.0,Calm,Calm,-,N/A,,Clear,0,2012-11-17 14:35:00
9:53 AM,40.5,36.7,86,30.63,5.0,Calm,Calm,-,N/A,,Clear,0,2012-11-17 14:53:00
10:15 AM,43.3,37.6,80,30.63,5.0,Calm,Calm,-,N/A,,Haze,0,2012-11-17 15:15:00
10:35 AM,45.1,37.6,75,30.63,7.0,Calm,Calm,-,N/A,,Clear,0,2012-11-17 15:35:00
10:54 AM,47.1,37.2,68,30.63,7.0,Calm,Calm,-,N/A,,Clear,0,2012-11-17 15:54:00
11:15 AM,49.3,36.3,61,30.63,7.0,South,3.5,-,N/A,,Clear,180,2012-11-17 16:15:00
11:34 AM,50.9,33.3,51,30.62,7.0,South,5.8,-,N/A,,Clear,190,2012-11-17 16:34:00
11:54 AM,52.2,33.4,49,30.62,10.0,South,5.8,-,N/A,,Clear,170,2012-11-17 16:54:00
12:15 PM,52.9,31.8,45,30.61,10.0,South,4.6,-,N/A,,Clear,180,2012-11-17 17:15:00
12:34 PM,53.8,30.9,42,30.60,10.0,SSW,3.5,-,N/A,,Clear,210,2012-11-17 17:34:00
12:55 PM,54.7,30.7,40,30.60,10.0,Calm,Calm,-,N/A,,Clear,0,2012-11-17 17:55:00
1:15 PM,54.7,30.0,39,30.60,10.0,Calm,Calm,-,N/A,,Clear,0,2012-11-17 18:15:00
1:34 PM,55.0,30.0,38,30.59,10.0,SW,3.5,-,N/A,,Clear,220,2012-11-17 18:34:00
1:55 PM,55.8,30.4,38,30.58,10.0,Calm,Calm,-,N/A,,Clear,0,2012-11-17 18:55:00
2:15 PM,56.3,30.0,37,30.58,10.0,SSE,8.1,-,N/A,,Clear,160,2012-11-17 19:15:00
2:34 PM,55.9,29.8,37,30.58,10.0,SSE,4.6,-,N/A,,Clear,160,2012-11-17 19:34:00
2:55 PM,55.8,29.1,36,30.58,10.0,Calm,Calm,-,N/A,,Clear,0,2012-11-17 19:55:00
3:15 PM,55.9,30.0,37,30.58,10.0,SSW,4.6,-,N/A,,Clear,200,2012-11-17 20:15:00
3:34 PM,55.6,30.7,39,30.58,10.0,SSW,4.6,-,N/A,,Clear,200,2012-11-17 20:34:00
3:55 PM,55.4,30.6,39,30.58,10.0,SSW,5.8,-,N/A,,Clear,200,2012-11-17 20:55:00
4:15 PM,54.9,31.5,41,30.58,10.0,South,4.6,-,N/A,,Clear,170,2012-11-17 21:15:00
4:34 PM,53.8,31.8,43,30.58,10.0,South,3.5,-,N/A,,Clear,190,2012-11-17 21:34:00
4:55 PM,53.2,32.4,45,30.58,10.0,Calm,Calm,-,N/A,,Clear,0,2012-11-17 21:55:00
5:15 PM,51.8,35.4,54,30.58,10.0,East,4.6,-,N/A,,Clear,100,2012-11-17 22:15:00
5:34 PM,50.5,36.5,59,30.58,10.0,ESE,3.5,-,N/A,,Clear,120,2012-11-17 22:34:00
5:55 PM,50.0,36.5,60,30.58,10.0,Calm,Calm,-,N/A,,Clear,0,2012-11-17 22:55:00
6:15 PM,48.2,36.5,64,30.58,10.0,Calm,Calm,-,N/A,,Clear,0,2012-11-17 23:15:00
6:34 PM,46.6,36.1,67,30.58,7.0,Calm,Calm,-,N/A,,Clear,0,2012-11-17 23:34:00
6:55 PM,45.0,35.8,70,30.58,7.0,Calm,Calm,-,N/A,,Clear,0,2012-11-17 23:55:00
7:15 PM,46.4,36.9,69,30.58,7.0,Calm,Calm,-,N/A,,Clear,0,2012-11-18 00:15:00
7:34 PM,45.7,37.4,73,30.58,7.0,Calm,Calm,-,N/A,,Clear,0,2012-11-18 00:34:00
7:55 PM,45.7,39.0,78,30.58,7.0,Calm,Calm,-,N/A,,Clear,0,2012-11-18 00:55:00
8:15 PM,44.8,39.2,81,30.58,5.0,Calm,Calm,-,N/A,,Haze,0,2012-11-18 01:15:00
8:34 PM,43.9,38.7,82,30.58,5.0,Calm,Calm,-,N/A,,Haze,0,2012-11-18 01:34:00
8:55 PM,43.0,38.3,84,30.58,5.0,Calm,Calm,-,N/A,,Haze,0,2012-11-18 01:55:00
9:14 PM,41.2,37.0,85,30.58,4.0,Calm,Calm,-,N/A,,Clear,0,2012-11-18 02:14:00
9:55 PM,39.7,36.0,86,30.58,4.0,Calm,Calm,-,N/A,,Clear,0,2012-11-18 02:55:00
10:14 PM,39.9,36.9,89,30.58,4.0,Calm,Calm,-,N/A,,Clear,0,2012-11-18 03:14:00
10:35 PM,39.4,36.3,89,30.59,3.0,NE,3.5,-,N/A,,Clear,40,2012-11-18 03:35:00
10:55 PM,39.4,36.5,89,30.58,3.0,NE,3.5,-,N/A,,Clear,50,2012-11-18 03:55:00
11:14 PM,39.6,37.0,91,30.58,2.5,ENE,3.5,-,N/A,,Clear,60,2012-11-18 04:14:00
11:35 PM,39.6,37.2,91,30.58,2.0,Calm,Calm,-,N/A,,Mostly Cloudy,0,2012-11-18 04:35:00
11:54 PM,40.3,37.8,91,30.58,1.5,Calm,Calm,-,N/A,,Overcast,0,2012-11-18 04:54:00